Terug naar catalogus

DSN-2

ActiefMilitairGEO
NORAD 41940·PAYLOAD·🇯🇵 Japan

Gelanceerd Jan 24, 2017 vanaf Tanegashima Space Center

Loading…

TLE

VersSource: Mike McCants

Epoch: Sep 15, 2026, 10:42 UTC

1 41940U 17005A   26258.44588886  .00000000  00000-0  00000-0 0    08
2 41940   0.0250 247.8967 0003453 131.2919 228.7549  1.00270000 21911

Volg DSN-2 in realtime met AllMySat

Download on the App Store